Weather History for Appleton, MN

Change the Weather History Date:

Monday, March 25, 2013

  Actual Average Record
Temperature  
Mean Temperature 24 °F -  
Max Temperature 30 °F 40 °F 64 °F (2004)
Min Temperature 17 °F 22 °F -5 °F (2002)
Degree Days  
Heating Degree Days 42    
Moisture  
Dew Point 20 °F    
Average Humidity 80    
Maximum Humidity 93    
Minimum Humidity 69    
Precipitation  
Precipitation 0.00 in - - ()
Sea Level Pressure  
Sea Level Pressure 30.23 in    
Wind  
Wind Speed 19 mph (NNW)    
Max Wind Speed 23 mph    
Max Gust Speed 29 mph    
Visibility 8 miles    
Events Snow    
Averages and records for this station are not official NWS values.
T = Trace of Precipitation, MM = Missing Value Source: NWS Daily Summary

Daily Weather History Graph

Daily Weather History Graph

Search for Another Location

Airport:

Trip Planner

Search our weather history database for the weather conditions in past years. The results will help you decide how hot, cold, wet, or windy it might be!

Date:

Astronomy

Mar. 25, 2013 Rise Set
Actual Time 7:17 AM CDT 7:43 PM CDT
Civil Twilight 6:47 AM CDT 8:12 PM CDT
Nautical Twilight 6:12 AM CDT 8:47 PM CDT
Astronomical Twilight 5:36 AM CDT 9:24 PM CDT
Moon 6:13 PM CDT (3/25) 6:04 AM CDT (3/25)
Length of Visible Light 13h 25m
Length of Day
12h 26m
Waxing Gibbous, 96% of the Moon is Illuminated
Mar 25
Waxing Gibbous
Mar 27
Full
Apr 2
Last Quarter
Apr 10
New
Apr 18
First Quarter

Hourly Weather History & Observations

Time (CDT) Temp. Windchill Dew Point Humidity Pressure Visibility Wind Dir Wind Speed Gust Speed Precip Events Conditions
12:13 AM 24.8 °F 10.3 °F 21.2 °F 86% 30.13 in 5.0 mi North 20.7 mph - N/A Snow Light Snow
12:33 AM 24.8 °F 10.0 °F 21.2 °F 86% 30.13 in 4.0 mi NNW 21.9 mph - N/A   Overcast
12:53 AM 24.8 °F 11.1 °F 21.2 °F 86% 30.13 in 5.0 mi NNW 18.4 mph - N/A   Overcast
1:14 AM 24.8 °F 9.6 °F 21.2 °F 86% 30.13 in 4.0 mi NNW 23.0 mph - N/A   Overcast
1:34 AM 24.8 °F 10.3 °F 21.2 °F 86% 30.13 in 4.0 mi NNW 20.7 mph - N/A   Overcast
1:53 AM 24.8 °F 10.0 °F 21.2 °F 86% 30.13 in 3.0 mi NNW 21.9 mph - N/A   Overcast
2:13 AM 24.8 °F 9.6 °F 21.2 °F 86% 30.13 in 3.0 mi NNW 23.0 mph - N/A   Overcast
2:34 AM 24.8 °F 10.3 °F 21.2 °F 86% 30.13 in 4.0 mi NNW 20.7 mph - N/A   Overcast
2:54 AM 24.8 °F 10.7 °F 21.2 °F 86% 30.14 in 4.0 mi NNW 19.6 mph - N/A   Overcast
3:13 AM 24.8 °F 10.3 °F 21.2 °F 86% 30.14 in 5.0 mi NNW 20.7 mph - N/A   Overcast
3:34 AM 24.8 °F 10.0 °F 21.2 °F 86% 30.14 in 4.0 mi NNW 21.9 mph - N/A   Overcast
3:53 AM 24.8 °F 11.1 °F 21.2 °F 86% 30.14 in 7.0 mi NNW 18.4 mph - N/A   Overcast
4:13 AM 24.8 °F 10.7 °F 21.2 °F 86% 30.14 in 7.0 mi NNW 19.6 mph - N/A   Overcast
4:34 AM 24.8 °F 10.7 °F 21.2 °F 86% 30.14 in 10.0 mi NNW 19.6 mph - N/A   Overcast
4:54 AM 23.0 °F 8.3 °F 21.2 °F 93% 30.15 in 7.0 mi NNW 19.6 mph - N/A   Overcast
5:33 AM 23.0 °F 10.6 °F 21.2 °F 93% 30.16 in 10.0 mi North 13.8 mph - N/A   Overcast
6:14 AM 23.0 °F 9.2 °F 21.2 °F 93% 30.17 in 7.0 mi NNW 17.3 mph - N/A   Overcast
6:33 AM 23.0 °F 8.7 °F 21.2 °F 93% 30.17 in 5.0 mi NNW 18.4 mph - N/A   Overcast
6:53 AM 23.0 °F 8.7 °F 19.4 °F 86% 30.17 in 7.0 mi NNW 18.4 mph - N/A   Overcast
7:13 AM 23.0 °F 8.3 °F 19.4 °F 86% 30.18 in 5.0 mi NNW 19.6 mph - N/A   Overcast
7:33 AM 23.0 °F 8.7 °F 19.4 °F 86% 30.19 in 5.0 mi NNW 18.4 mph - N/A   Overcast
7:54 AM 23.0 °F 10.1 °F 19.4 °F 86% 30.20 in 7.0 mi NNW 15.0 mph - N/A   Overcast
8:13 AM 23.0 °F 8.7 °F 19.4 °F 86% 30.21 in 4.0 mi NNW 18.4 mph - N/A   Overcast
8:34 AM 23.0 °F 8.7 °F 19.4 °F 86% 30.21 in 4.0 mi NNW 18.4 mph - N/A   Overcast
8:54 AM 24.8 °F 10.7 °F 19.4 °F 80% 30.22 in 7.0 mi NNW 19.6 mph - N/A   Overcast
9:14 AM 24.8 °F 11.5 °F 19.4 °F 80% 30.22 in 10.0 mi NNW 17.3 mph - N/A   Overcast
9:34 AM 24.8 °F 11.9 °F 19.4 °F 80% 30.22 in 10.0 mi NNW 16.1 mph - N/A   Overcast
9:54 AM 24.8 °F 11.5 °F 19.4 °F 80% 30.22 in 10.0 mi NNW 17.3 mph - N/A   Overcast
10:14 AM 26.6 °F 13.4 °F 19.4 °F 74% 30.23 in 10.0 mi NNW 18.4 mph - N/A   Overcast
10:33 AM 26.6 °F 13.4 °F 21.2 °F 80% 30.23 in 10.0 mi NNW 18.4 mph - N/A   Overcast
10:53 AM 26.6 °F 12.7 °F 21.2 °F 80% 30.24 in 10.0 mi NNW 20.7 mph - N/A   Overcast
11:14 AM 26.6 °F 12.4 °F 21.2 °F 80% 30.24 in 10.0 mi NNW 21.9 mph - N/A   Overcast
11:34 AM 28.4 °F 15.1 °F 21.2 °F 74% 30.24 in 10.0 mi NNW 20.7 mph - N/A   Overcast
11:54 AM 28.4 °F 15.1 °F 21.2 °F 74% 30.24 in 10.0 mi NNW 20.7 mph 25.3 mph N/A   Overcast
12:13 PM 28.4 °F 14.7 °F 21.2 °F 74% 30.25 in 10.0 mi NNW 21.9 mph 27.6 mph N/A   Overcast
12:33 PM 30.2 °F 17.1 °F 21.2 °F 69% 30.24 in 10.0 mi NNW 21.9 mph 26.5 mph N/A   Overcast
12:53 PM 30.2 °F 16.8 °F 21.2 °F 69% 30.25 in 10.0 mi NNW 23.0 mph 27.6 mph N/A   Overcast
1:13 PM 30.2 °F 17.1 °F 21.2 °F 69% 30.25 in 10.0 mi NNW 21.9 mph - N/A   Overcast
1:34 PM 30.2 °F 17.8 °F 21.2 °F 69% 30.25 in 10.0 mi NNW 19.6 mph 26.5 mph N/A   Mostly Cloudy
1:53 PM 30.2 °F 16.8 °F 21.2 °F 69% 30.25 in 10.0 mi NNW 23.0 mph 26.5 mph N/A   Mostly Cloudy
2:13 PM 30.2 °F 17.4 °F 21.2 °F 69% 30.25 in 10.0 mi NNW 20.7 mph - N/A   Scattered Clouds
2:33 PM 30.2 °F 17.1 °F 21.2 °F 69% 30.25 in 10.0 mi NNW 21.9 mph 28.8 mph N/A   Clear
2:53 PM 30.2 °F 18.1 °F 21.2 °F 69% 30.25 in 10.0 mi NNW 18.4 mph - N/A   Clear
3:13 PM 30.2 °F 17.4 °F 21.2 °F 69% 30.25 in 10.0 mi NNW 20.7 mph 25.3 mph N/A   Clear
3:33 PM 30.2 °F 17.4 °F 21.2 °F 69% 30.25 in 10.0 mi NNW 20.7 mph - N/A   Clear
3:53 PM 30.2 °F 18.1 °F 21.2 °F 69% 30.25 in 10.0 mi NNW 18.4 mph 26.5 mph N/A   Clear
4:13 PM 30.2 °F 17.4 °F 21.2 °F 69% 30.25 in 10.0 mi NNW 20.7 mph 26.5 mph N/A   Clear
4:33 PM 30.2 °F 16.8 °F 21.2 °F 69% 30.26 in 10.0 mi NW 23.0 mph - N/A   Clear
4:54 PM 28.4 °F 15.1 °F 21.2 °F 74% 30.26 in 10.0 mi NNW 20.7 mph 26.5 mph N/A   Clear
5:13 PM 28.4 °F 14.7 °F 21.2 °F 74% 30.26 in 10.0 mi NNW 21.9 mph 27.6 mph N/A   Clear
5:33 PM 28.4 °F 15.4 °F 21.2 °F 74% 30.27 in 10.0 mi NNW 19.6 mph - N/A   Clear
5:53 PM 28.4 °F 15.1 °F 19.4 °F 69% 30.27 in 10.0 mi NNW 20.7 mph - N/A   Clear
6:14 PM 26.6 °F 13.1 °F 19.4 °F 74% 30.28 in 10.0 mi NNW 19.6 mph 26.5 mph N/A   Clear
6:33 PM 26.6 °F 13.8 °F 19.4 °F 74% 30.28 in 10.0 mi NNW 17.3 mph 24.2 mph N/A   Clear
6:53 PM 26.6 °F 14.3 °F 19.4 °F 74% 30.29 in 10.0 mi NW 16.1 mph 23.0 mph N/A   Clear
7:13 PM 26.6 °F 14.3 °F 19.4 °F 74% 30.29 in 10.0 mi NNW 16.1 mph - N/A   Clear
7:33 PM 24.8 °F 12.9 °F 19.4 °F 80% 30.30 in 10.0 mi NW 13.8 mph - N/A   Clear
7:53 PM 24.8 °F 13.4 °F 19.4 °F 80% 30.30 in 10.0 mi NW 12.7 mph - N/A   Clear
8:14 PM 23.0 °F 11.7 °F 17.6 °F 80% 30.30 in 10.0 mi NW 11.5 mph - N/A   Clear
8:34 PM 21.2 °F 9.5 °F 17.6 °F 86% 30.31 in 10.0 mi NW 11.5 mph - N/A   Clear
8:53 PM 21.2 °F 10.1 °F 17.6 °F 86% 30.31 in 10.0 mi NW 10.4 mph - N/A   Clear
9:13 PM 21.2 °F 10.1 °F 15.8 °F 80% 30.31 in 10.0 mi NW 10.4 mph - N/A   Clear
9:33 PM 21.2 °F 10.1 °F 15.8 °F 80% 30.31 in 10.0 mi NW 10.4 mph - N/A   Clear
9:54 PM 19.4 °F 8.6 °F 15.8 °F 86% 30.32 in 10.0 mi NW 9.2 mph - N/A   Clear
10:13 PM 19.4 °F 7.9 °F 15.8 °F 86% 30.32 in 10.0 mi NW 10.4 mph - N/A   Clear
10:33 PM 19.4 °F 7.2 °F 15.8 °F 86% 30.32 in 10.0 mi NW 11.5 mph - N/A   Clear
10:53 PM 19.4 °F 7.2 °F 15.8 °F 86% 30.32 in 10.0 mi NW 11.5 mph - N/A   Clear
11:13 PM 17.6 °F 5.7 °F 15.8 °F 93% 30.32 in 10.0 mi NW 10.4 mph - N/A   Clear
11:34 PM 17.6 °F 7.3 °F 14.0 °F 86% 30.32 in 10.0 mi NW 8.1 mph - N/A   Clear
11:53 PM 17.6 °F 6.4 °F 12.2 °F 79% 30.32 in 10.0 mi NW 9.2 mph - N/A   Clear